Погода Марьина Горка

Погода Марьина Горка : погода сейчас, прогноз погоды и архив. Всё, что Вы хотите узнать о погоде Марьина Горка!

Хотите узнать прогноз погоды Марьина Горка? Тогда Вам сюда: Погода Марьина Горка

Поиск расширенной информации на нашем сайте:

Другие новости

Новости СМИ2

Главная страница сайта

Новости сайта

03.07.2017

Напоминаем, что на нашем специализированном сайте Метеоцентр.Азия вы можете получить высокодетализированные автоматические прогнозы погоды по пунктам России, СНГ и мира в авиационном формате (включающие направление и скорость ветра, видимость, явления погоды, количество и форму облачности, нижнюю и верхнюю границу облачности).


Погода Марьина Горка - сегодня

Время (UTC), дата Ветер
(°,м/с) 
Видим.   Явления Облачность Т
(°С)
Тd
(°С)
f(%) Тe
(°С)
Pmin
(гПа)
dP
(гПа)
Po
(мм)
O2
(г/м3)
Тmin Tmax R s Состояние
почвы
00 18.06.18 тихо ()   6000 м  дымка  4/0 верхняя 
[Ci fib]
+14.2 +13.2 94 +20  1016.8  747  283           
03 18.06.18 тихо ()   5000 м  дымка  9/6 2000 м средняя, верхняя 
[Ac und|Ci fib]
+13.8 +13.3 97 +20  1017.1  0.3  747  284           
06 18.06.18 030 (СВ) 15000 м    8/8 2000 м средняя 
[Ac und]
+19.8 +14.8 73 +29  1016.7  747  278  +13.3         
09 18.06.18 230 (ЮЗ) 20000 м    9/5 2000 м средняя, верхняя 
[Ac und|Cs]
+24.5 +15.7 58 +35  1016.5  0.2  747  273           
12 18.06.18 290 (З) 23000 м    8/4 600 м средняя, верхняя 
[Cu med, cong|Ac und|Cs]
+26.8 +12.8 42 +32  1015.9  -0.5  747  272           
15 18.06.18 310 (СЗ) 23000 м    8/3 600 м средняя, верхняя 
[Cu med, cong|Ac und|Cs]
+27.4 +12.6 40 +32  1014.9  -0.9  746  271           
18 18.06.18 260 (З) 18000 м    9/8 2000 м средняя, верхняя 
[Ac und|Ci fib]
+23.8 +15.8 61 +34  1015.6  0.4  746  273    +28.2       
21 18.06.18 тихо ()   14000 м    9/8 2000 м средняя, верхняя 
[Ac und|Cs]
+19.7 +16 79 +30  1016.3  0.5  747  277           
00 19.06.18 тихо ()   11000 м    9/8 2000 м средняя, верхняя 
[Ac und|Cs]
+18.3 +16.3 88 +29  1016.6  0.2  747  279           
03 19.06.18 тихо ()   10 км  в посл. час ливневой дождь  9/8 600 м средняя 
[Sc|Ac und]
+18.4 +16.6 89 +30  1016.8  0.2  747  278      0.1     
06 19.06.18 тихо ()   10 км  в посл. час ливневой дождь  9/3 600 м средняя 
[Sc|Ac und]
+20.2 +16.2 78 +31  1017.4  0.7  748  277  +17.8    0.4     
09 19.06.18 270 (З) 20000 м    8/1 600 м средняя 
[Cu hum|Ac und]
+24.6 +15.5 57 +34  1016.1  -1  747  273           
12 19.06.18 280 (З) 25000 м    9/8 600 м средняя 
[Cu Sc|Ac und]
+26.2 +15.9 53 +37  1014.9  -1.1  746  271           
15 19.06.18 300 (СЗ) 25000 м    8/6 600 м верхняя 
[Cu Sc|Ci fib]
+26.2 +15.6 52 +36  1013.6  -1.3  745  271           
18 19.06.18 290 (З) 22000 м    9/8 2000 м средняя, верхняя 
[Ac und|Ci fib]
+22.7 +13.5 56 +29  1014.2  0.4  745  275    +27.6       
21 19.06.18 300 (СЗ) 17000 м    4/3 2000 м средняя, верхняя 
[Ac und|Ci fib]
+17.6 +12.7 73 +24  1016  1.4  746  280           
00 20.06.18 320 (СЗ) 17000 м    8/8 2000 м средняя 
[Ac und]
+17 +11.7 71 +21  1017.5  1.4  748  281           
06 20.06.18 300 (СЗ) 18000 м    5/5 600 м 
[Cu med, cong]
+18.8 +12.1 65 +23  1018.6  0.2  748  280  +13.9         
09 20.06.18 280 (З) 6{10}  23000 м    ясно 
+22.6 +8 39 +23  1017.7  -0.6  748  277           
12 20.06.18 290 (З) 6-10{11}  29000 м    ясно 
+25.1 +5.3 28 +25  1016.5  -1.1  747  275           
15 20.06.18 300 (СЗ) 5-10{11}  28000 м    ясно 
+25.5 +6.7 30 +26  1015.8  -0.6  747  274           
18 20.06.18 300 (СЗ) 23000 м    ясно 
+21.8 +10.6 49 +24  1015.7  -0.3  746  277    +26.1       
21 20.06.18 300 (СЗ) 18000 м    ясно 
+17.3 +10.7 65 +21  1017.3  1.2  747  281           
00 21.06.18 тихо ()   16000 м    ясно 
+14 +10.6 80 +16  1017.7  0.2  748  285           
09 21.06.18 230 (ЮЗ) 30000 м    1/1 600 м 
[Cu hum]
+26 +10.6 38 +28  1013.9  -2.3  745  272           
Время (UTC), дата Ветер
(°,м/с) 
Видим.   Явления Облачность Т
(°С)
Тd
(°С)
f(%) Тe
(°С)
Pmin
(гПа)
dP
(гПа)
Po
(мм)
O2
(г/м3)
Тmin Tmax R s Состояние
почвы

Для получения пояснительной информации подведите курсор к названию столбца.

ПОГОДА Марьина Горка - архив

Всё, что Вы хотите узнать о погоде Марьина Горка - удобно и подробно!

Выберите нужную дату (начиная с 1 января 2015* года) и нажмите кнопку "Найти".
Будут отображены архивные сводки погоды по пункту Марьина Горка, начиная с указанной даты.


Отображать данные в формате CSV (для использования в таблицах Excel)


Внимание! Наш архив погоды предназначен исключительно для личного некоммерческого использования в познавательных целях. Если Вам необходимы официальные справки о состоянии погоды (для производственных, юридических, коммерческих и т.п. целей), обращайтесь в органы Росгидромета.

*Примечание: данная дата относится к архиву по метеостанциям СССР (Россия, СНГ, Балтия).
Архив по метеостанциям Зарубежной Европы и Азии (кроме Китая) хранится 10 дней, по другим регионам земного шара (Китай, Африка, Америка, Австралия, Океания) - 1 день.

Марьина Горка - район местоположения метеостанции


Название, широта, долгота, высота метеостанции:
Марьина Горка 55.4°ш. 28.1°д. 177 м над ур. моря [Беларусь]

Дополнительная информация

В oтличие oт бoльшинства пoгoдных сайтoв мы публикуем пoдрoбную метеoинфoрмацию в детальнoм прoфессиoнальнoм фoрмате.

Характеристики температуры и влажнoсти вoздуха измеряются на высoте 2 м в тени вдали oт зданий и деревьев.
Скoрoсть ветра измеряется на высoте 10 м (на урoвне рoста челoвека скoрoсть ветра ниже в 1.5-2 раза). Если метеoстанция нахoдится в гoрoде или в лесу, тo скoрoсть ветра занижена на 2-4 м/с пo сравнению с oткрытым местoм. Скoрoсть ветра над акватoриями крупных рек и oзёр, а также на вершинах хoлмoв на 2-5 м/с выше, чем в oбычных услoвиях.
Атмoсфернoе давление в разных тoчках местнoсти мoжет значительнo oтличаться oт давления на метеoстанции, в зависимoсти oт услoвий рельефа (при пoдъёме на 10 м давление пoнижается примернo на 1 мм рт.ст.).